Showing default

OPS 5712 (P/L 152), 2873

Orbit data source: Space-Track

OPS 5712 (P/L 152), 2873 is an American payload satellite in LEO that was launched on Wed, 31 May 1967 UTC via a THOR SLV-2 AGENA D launch vehicle from the Air Force Western Test Range (AFWTR). Payload-class satellites include a variety of spacecraft equipped with specific instruments for various scientific and technological missions. These include communications satellites like Starlink; space stations such as the ISS; scientific satellites like the Hubble; Earth observation satellites from companies like Planet Labs, Umbra, and HawkEye 360; GPS; miniature CubeSats for education and research; and military/defense satellites.

Loading next visibility...
Identifier
2873, 1967-053G
Orbit
LEO
Country
Flag of USUS
Related business
Manufacturer
NRL
Mission
Spacecraft
Bus & Motor
NRL 24", Unknown motor
Mass
52 kg wet, 52 kg dry
Launch date (UTC)
1967-05-31 (58 years ago)
Launch vehicle
THOR SLV-2 AGENA D
Launch site
Air Force Western Test Range (AFWTR)
Object type
Payload
Rocket body
Debris
Shape & HBR
Unknown
Radar Cross Section
Medium (>0.1 m² and <1 m²)

Expand to show TLE details & history
Last TLE update: 10 hours ago

TLE from 10 hours ago
0 OPS 5712 (P/L 152)
1  2873U 67053G   25298.44628919  .00000158  00000-0  14795-3 0  9993
2  2873  69.9745 194.5748 0004803 104.5156  68.8575 13.98454780975691
Epoch: 2025-10-25T10:42Z
TLE epoch observation values (Epoch: 2025-10-25T10:42:39.386Z)
Latitude
6.1094°
Longitude
177.60994°
Altitude
899.62 km
Speed
7.404 km/s
True Right ascension
00h 49m 24s
True Declination
6° 04' 26"
Sunlit
Object was in full shadow at epoch
Visualization orbit readout
Latitude
Unknown
Longitude
Unknown
Altitude
Unknown
Speed
Unknown
Apparent Right ascension
Unknown
Apparent Declination
Unknown
Sunlit
N/A
Visualization observer readout
Local Sidereal Time
15:38:39
Azimuth
Unknown
Elevation
Unknown
Doppler factor
Unknown
Orbital elements
Apogee altitude
900.689 km
Perigee altitude
893.7 km
Semi-major axis
7,275.331 km
Eccentricity
0.00048
Inclination
69.9745°
RAAN
194.5748°
Arg. of periapsis
104.5156°
True anomaly
68.90884°
Mean anomaly
68.8575°
Eccentric anomaly
68.88317°
Mean motion
3.49755 °/min
Orbital period
102.93 mins
BSTAR
0.00014795
Loading maneuver chart data...
Computing Atmospheric mass density...
Loading historical data...
Loading historical data...
Loading historical data...
Loading historical data...
Loading historical data...
Loading historical data...
Loading historical data...

Documentation

Showing up to 5 results
|